Location: Schommer Observatory
(40.5200°N, 74.4500°W)
Time: 00:46:02
(UTC-04:00)

Tiangong 2 - Pass Details

Date: 24 May 2018
Orbit: 382 x 386 km, 42.8° (Epoch: 20 May)

Event Time Altitude Azimuth Distance (km) Brightness Sun altitude
Rises 21:42:07 0° 262° (W) 2,246 5.5 -14.0°
Reaches altitude 10° 21:44:12 10° 265° (W) 1,395 4.5 -14.3°
Maximum altitude 21:47:20 68° 349° (N) 413 1.3 -14.7°
Enters shadow 21:49:54 14° 72° (ENE) 1,171 3.2 -15.0°
